Home   Weather   Ojinaga   Past weeks
Flag for Mexico

Past Weather in Ojinaga, Chihuahua, Mexico — Yesterday and Last 2 Weeks

Now
56 °F

Light rain. Low clouds.


Feels Like: 56 °F
Forecast: 79 / 62 °F
Wind: 3 mph from Southwest

Location: Marfa Municipal Airport

Current Time: Oct 14, 2019 at 7:48:06 am

Latest Report: Oct 14, 2019 at 6:56 am


Visibility: 10 mi

Pressure: 30.05 "Hg (27.36 "Hg at 788m altitude)

Humidity: 100%

Dew Point: 56 °F

Location of OjinagaLocation

Past Weather in Ojinaga — Graph

°F

Ojinaga Temperature Yesterday

Maximum temperature yesterday: 71 °F (at 1:56 pm)
Minimum temperature yesterday: 42 °F (at 2:56 am)
Average temperature yesterday: 56 °F

High & Low Weather Summary for the Past Weeks

 TemperatureHumidityPressure
High85 °F (Sep 29, 3:56 pm)100% (Oct 14, 6:22 am)30.31 "Hg (Oct 14, 6:22 am)
Low36 °F (Oct 11, 6:56 am)17% (Oct 10, 1:56 pm)29.77 "Hg (Oct 9, 3:56 pm)
Average66 °F64%30.01 "Hg
* Reported Sep 29 6:56 am — Oct 14 6:22 am, Ojinaga. Weather by CustomWeather, © 2019

Note: Actual official high and low records may vary slightly from our data, if they occured in-between our weather recording intervals... More about our weather records

Advertising

Ojinaga Weather History for the Previous 24 Hours

Scroll right to see more
 ConditionsComfort  
Time TempWeatherWind HumidityBarometerVisibility
6:22 am
Mon, Oct 14
55 °FLight rain. Mostly cloudy.3 mph100%30.15 "Hg10 mi
5:56 am56 °FLight rain. Mostly cloudy.No wind97%30.04 "Hg10 mi
4:56 am55 °FLight rain. Overcast.No wind93%30.02 "Hg10 mi
3:56 am55 °FLight rain. Overcast.No wind93%30.02 "Hg10 mi
2:56 am55 °FLight rain. Mostly cloudy.5 mph93%30.01 "Hg10 mi
1:56 am55 °FPassing clouds.3 mph90%30.01 "Hg10 mi
12:56 am56 °FOvercast.No wind87%30.01 "Hg10 mi
11:56 pm
Sun, Oct 13
57 °FMostly cloudy.5 mph81%30.02 "Hg10 mi
10:56 pm55 °FOvercast.3 mph90%30.05 "Hg10 mi
9:56 pm56 °FPassing clouds.6 mph87%30.07 "Hg10 mi
8:56 pm56 °FClear.No wind87%30.05 "Hg10 mi
7:56 pm56 °FClear.6 mph87%30.07 "Hg10 mi
6:56 pm56 °FPassing clouds.No wind87%30.09 "Hg10 mi
5:56 pm58 °FPartly sunny.10 mph78%30.08 "Hg10 mi
4:56 pm60 °FLight rain. Mostly cloudy.12 mph83%30.07 "Hg10 mi
3:56 pm63 °FLight rain. Partly sunny.9 mph58%30.04 "Hg10 mi
2:56 pm68 °FBroken clouds.18 mph45%30.02 "Hg10 mi
1:56 pm71 °FScattered clouds.9 mph41%30.01 "Hg10 mi
12:56 pm70 °FOvercast.5 mph44%30.04 "Hg10 mi
11:56 am68 °FScattered clouds.5 mph47%30.06 "Hg10 mi
10:56 am65 °FOvercast.3 mph51%30.08 "Hg10 mi
9:56 am61 °FPartly sunny.5 mph60%30.07 "Hg10 mi
8:56 am58 °FPartly sunny.No wind70%30.06 "Hg10 mi
7:56 am50 °FSunny.No wind80%30.05 "Hg10 mi
Weather by CustomWeather, © 2019

See weather overview